Location: The Jewett Observatory
(46.7288°N, 117.1525°W)
Time: 04:43:34
(UTC-07:00)

Amateur Radio Satellites - All Passes

Search period start: 25 March 2017 04:13
Search period end: 26 March 2017 04:13
Location: The Jewett Observatory, 46.7288°N, 117.1525°W

Satellite Date Start Highest point End Downlink Frequencies (MHz)
Time Altitude Azimuth
AO-85 25 Mar 04:26:52 04:29:25 16° 34° (NE) 04:31:57 145.980
STARS 25 Mar 04:28:43 04:32:56 45° 70° (ENE) 04:37:11 437.465
CUBESAT XI-V 25 Mar 04:41:26 04:46:02 89° 259° (W) 04:50:40 437.345
O/OREOS (USA 219) 25 Mar 04:50:32 04:51:46 11° 264° (W) 04:53:01 437.305
ITAMSAT 1 25 Mar 05:15:27 05:20:10 35° 295° (WNW) 05:24:50 435.822/435.867
M-CUBED/EXP-1 PRIME 25 Mar 05:23:23 05:26:52 40° 63° (ENE) 05:30:39 437.505
KKS-1 25 Mar 05:25:03 05:28:42 24° 266° (W) 05:32:23 437.445
DOVE 4 25 Mar 05:25:31 05:27:55 13° 85° (E) 05:30:18 437.250
AO-7 25 Mar 05:47:53 05:55:48 52° 299° (WNW) 06:03:42 .
XW-2D 25 Mar 05:56:12 05:57:53 13° 90° (E) 05:59:33 145.860 - 145.880
XW-2B 25 Mar 06:01:46 06:03:50 14° 90° (E) 06:05:53 145.730 - 145.750
NUDT-PHONESAT 25 Mar 06:02:04 06:03:12 11° 89° (E) 06:04:19 437.300
STARS 25 Mar 06:06:12 06:09:30 20° 267° (W) 06:12:50 437.465
AO-85 25 Mar 06:06:23 06:10:19 84° 238° (WSW) 06:14:20 145.980
KAITUO 1B 25 Mar 06:06:44 06:08:29 13° 90° (E) 06:10:13 145.475/437.950
BEESAT 3 25 Mar 06:09:20 06:12:15 19° 36° (NE) 06:15:07 437.485
XW-2C 25 Mar 06:11:23 06:14:03 18° 92° (E) 06:16:42 145.795 - 145.815
BEESAT 2 25 Mar 06:21:46 06:23:52 14° 30° (NNE) 06:25:57 435.950
CUBESAT XI-V 25 Mar 06:23:22 06:24:06 10° 274° (W) 06:24:49 437.345
STRAND 1 25 Mar 06:31:50 06:36:33 38° 66° (ENE) 06:41:17 437.568
CUTE-I 25 Mar 06:53:06 06:58:18 48° 99° (E) 07:03:26 437.470
M-CUBED/EXP-1 PRIME 25 Mar 06:58:55 07:01:34 18° 263° (W) 07:04:22 437.505
DOVE 4 25 Mar 07:00:58 07:06:20 87° 104° (ESE) 07:11:36 437.250
YUBILEINY 25 Mar 07:01:43 07:09:06 32° 82° (E) 07:16:27 435.215
NO-84 25 Mar 07:02:12 07:03:44 14° 130° (SE) 07:05:16 435.350 FM
LilacSat-2 25 Mar 07:02:13 07:06:01 75° 103° (ESE) 07:09:46 437.200
XW-2F 25 Mar 07:03:43 07:07:28 72° 103° (ESE) 07:11:10 145.980 - 146.000
SEEDS 25 Mar 07:26:59 07:28:31 12° 88° (E) 07:30:03 437.485
XW-2D 25 Mar 07:28:45 07:32:25 53° 287° (WNW) 07:36:04 145.860 - 145.880
CUTE 1.7 + AOD 2 25 Mar 07:29:38 07:32:41 19° 92° (E) 07:35:43 437.475
HO-68 25 Mar 07:33:17 07:39:26 30° 94° (E) 07:45:33 435.675
NUDT-PHONESAT 25 Mar 07:33:52 07:37:31 58° 286° (WNW) 07:41:07 437.300
XW-2B 25 Mar 07:34:41 07:38:19 47° 288° (WNW) 07:41:55 145.730 - 145.750
KAITUO 1B 25 Mar 07:39:13 07:42:49 50° 288° (WNW) 07:46:24 145.475/437.950
AO-7 25 Mar 07:42:28 07:46:43 15° 322° (NW) 07:50:58 .
XW-2C 25 Mar 07:44:56 07:48:24 36° 290° (WNW) 07:51:50 145.795 - 145.815
BEESAT 3 25 Mar 07:46:16 07:50:19 75° 235° (SW) 07:54:17 437.485
FO-29 25 Mar 07:50:50 07:51:53 10° 44° (NE) 07:52:57 435.910
BEESAT 2 25 Mar 07:58:22 08:02:26 64° 51° (NE) 08:06:27 435.950
UWE-3 25 Mar 08:02:50 08:04:44 13° 87° (E) 08:06:36 435.000/436.395/437.385
XW-2A 25 Mar 08:09:45 08:13:08 63° 101° (E) 08:16:28 145.665 - 145.685
STRAND 1 25 Mar 08:11:12 08:15:46 32° 264° (W) 08:20:22 437.568
CUBEBUG 2 25 Mar 08:31:37 08:35:50 39° 97° (E) 08:39:53 437.445
CUTE-I 25 Mar 08:33:37 08:38:06 28° 298° (WNW) 08:42:33 437.470
NO-84 25 Mar 08:38:05 08:40:55 63° 329° (NNW) 08:43:47 435.350 FM
LilacSat-2 25 Mar 08:38:47 08:39:44 11° 300° (WNW) 08:40:40 437.200
XW-2F 25 Mar 08:40:01 08:41:04 11° 300° (WNW) 08:42:05 145.980 - 146.000
DOVE 4 25 Mar 08:40:04 08:43:17 16° 302° (WNW) 08:46:29 437.250
Oscar 11 25 Mar 08:41:47 08:44:18 15° 90° (E) 08:46:50 .
ZACube-1 25 Mar 08:45:58 08:49:12 21° 92° (E) 08:52:22 437.345
AAUSAT CUBESAT 2 25 Mar 08:49:27 08:53:25 43° 98° (E) 08:57:22 437.432
YUBILEINY 25 Mar 08:56:40 09:05:19 64° 283° (WNW) 09:14:00 435.215
SEEDS 25 Mar 09:00:31 09:04:42 72° 285° (WNW) 09:08:52 437.485
CUTE 1.7 + AOD 2 25 Mar 09:04:44 09:08:44 43° 289° (WNW) 09:12:44 437.475
PRISM 25 Mar 09:10:43 09:14:41 55° 72° (ENE) 09:18:42 437.425
AO-73 25 Mar 09:14:45 09:18:43 36° 97° (E) 09:22:34 145.935
HO-68 25 Mar 09:20:32 09:27:34 61° 293° (WNW) 09:34:36 435.675
TIGRISAT 25 Mar 09:22:50 09:27:08 37° 69° (ENE) 09:31:26 435.000
FO-29 25 Mar 09:28:02 09:35:12 42° 64° (ENE) 09:41:56 435.910
UNISAT 6 25 Mar 09:32:19 09:36:50 48° 71° (ENE) 09:41:19 437.425
BEESAT 2 25 Mar 09:37:20 09:39:44 15° 249° (WSW) 09:42:08 435.950
UWE-3 25 Mar 09:37:22 09:41:44 69° 286° (WNW) 09:45:56 435.000/436.395/437.385
XW-2A 25 Mar 09:45:05 09:45:23 10° 299° (WNW) 09:45:41 145.665 - 145.685
PCSat 25 Mar 09:49:09 09:54:02 36° 112° (ESE) 09:58:58 145.827
CUBEBUG 2 25 Mar 10:08:40 10:12:13 24° 296° (WNW) 10:15:41 437.445
Oscar 11 25 Mar 10:16:35 10:20:49 58° 287° (WNW) 10:25:02 .
NO-84 25 Mar 10:16:44 10:18:54 19° 349° (N) 10:21:08 435.350 FM
NANOSAT C BR1 25 Mar 10:18:40 10:20:44 13° 59° (ENE) 10:22:47 145.865
DELFI C3 25 Mar 10:21:36 10:25:31 52° 100° (E) 10:29:25 145.870
ZACube-1 25 Mar 10:21:39 10:25:40 40° 290° (WNW) 10:29:34 437.345
EO-79 25 Mar 10:21:49 10:24:20 15° 61° (ENE) 10:26:51 145.935-145.965
AAUSAT CUBESAT 2 25 Mar 10:25:35 10:28:36 20° 296° (WNW) 10:31:36 437.432
AIST 2D 25 Mar 10:44:41 10:47:53 33° 71° (ENE) 10:51:06 435.315
PRISM 25 Mar 10:48:03 10:50:19 15° 269° (W) 10:52:38 437.425
POLYITAN 1 25 Mar 10:48:11 10:51:48 27° 66° (ENE) 10:55:26 437.675
LO-87 25 Mar 10:48:45 10:50:26 13° 90° (E) 10:52:07 145.935 - 145.965
AO-73 25 Mar 10:51:23 10:54:46 23° 295° (WNW) 10:58:04 145.935
QB50P2 25 Mar 10:52:32 10:56:19 31° 68° (ENE) 11:00:07 145.880/145.840
YUBILEINY 25 Mar 10:59:25 11:04:14 16° 309° (NW) 11:09:04 435.215
TIGRISAT 25 Mar 10:59:53 11:03:53 27° 266° (W) 11:07:53 435.000
DUCHIFAT 1 25 Mar 11:06:45 11:10:35 34° 68° (ENE) 11:14:27 145.980
HO-68 25 Mar 11:10:09 11:13:56 15° 314° (NW) 11:17:42 435.675
UNISAT 6 25 Mar 11:10:13 11:13:46 21° 268° (W) 11:17:19 437.425
FO-29 25 Mar 11:12:32 11:20:05 50° 262° (W) 11:27:13 435.910
BUGSAT 1 25 Mar 11:28:59 11:32:15 22° 64° (ENE) 11:35:31 437.445
PCSat 25 Mar 11:32:15 11:37:23 42° 312° (NW) 11:42:33 145.827
Oscar 19 25 Mar 11:36:51 11:38:59 13° 54° (NE) 11:41:07 437.125/150
NANOSAT C BR1 25 Mar 11:51:36 11:55:51 76° 257° (WSW) 12:00:09 145.865
NO-84 25 Mar 11:54:59 11:57:15 19° 11° (NNE) 11:59:37 435.350 FM
EO-79 25 Mar 11:55:22 11:59:37 64° 259° (W) 12:03:53 145.935-145.965
DELFI C3 25 Mar 11:57:29 11:59:55 16° 297° (WNW) 12:02:21 145.870
VELOX 1 25 Mar 12:05:44 12:08:35 17° 91° (E) 12:11:26 145.980
AIST 2D 25 Mar 12:18:46 12:21:13 18° 267° (W) 12:23:41 435.315
LO-87 25 Mar 12:20:38 12:24:12 50° 287° (WNW) 12:27:44 145.935 - 145.965
ESTCUBE 1 25 Mar 12:22:49 12:27:20 74° 103° (ESE) 12:31:50 437.505/2401.250
POLYITAN 1 25 Mar 12:23:36 12:27:29 33° 263° (W) 12:31:24 437.675
RS-15 25 Mar 12:24:12 12:35:03 42° 108° (ESE) 12:46:09 29.354- 29.394
QB50P2 25 Mar 12:28:25 12:32:06 28° 265° (W) 12:35:49 145.880/145.840
DUCHIFAT 1 25 Mar 12:42:46 12:46:19 25° 266° (W) 12:49:52 145.980
SPROUT 25 Mar 12:58:48 13:02:59 49° 99° (E) 13:07:07 437.525
BUGSAT 1 25 Mar 13:03:21 13:07:22 41° 262° (W) 13:11:25 437.445
AO-7 25 Mar 13:07:57 13:13:40 21° 44° (NE) 13:19:22 .
Oscar 19 25 Mar 13:12:21 13:17:26 76° 74° (ENE) 13:22:35 437.125/150
Gurwin Techsat 1B 25 Mar 13:16:40 13:21:47 50° 69° (ENE) 13:26:56 435.225
PCSat 25 Mar 13:19:47 13:22:17 13° 336° (NNW) 13:24:49 145.827
ITAMSAT 1 25 Mar 13:21:07 13:23:09 12° 53° (NE) 13:25:11 435.822/435.867
DX 1 25 Mar 13:22:15 13:26:25 40° 99° (E) 13:30:33 434.975-435.025
50 SAT 25 Mar 13:23:12 13:26:43 69° 102° (ESE) 13:30:12 437.505
NO-84 25 Mar 13:32:11 13:35:16 59° 31° (NNE) 13:38:35 435.350 FM
VELOX 1 25 Mar 13:41:00 13:45:24 57° 288° (WNW) 13:49:46 145.980
ESTCUBE 1 25 Mar 14:01:04 14:03:35 15° 301° (WNW) 14:06:06 437.505/2401.250
UKube-1 25 Mar 14:04:46 14:09:08 80° 105° (ESE) 14:13:27 .
RS-15 25 Mar 14:34:47 14:46:54 71° 313° (NW) 14:59:21 29.354- 29.394
SPROUT 25 Mar 14:35:31 14:38:33 19° 297° (WNW) 14:41:35 437.525
SO-50 25 Mar 14:42:12 14:45:55 24° 114° (ESE) 14:49:36 436.795
Oscar 19 25 Mar 14:54:23 14:57:21 15° 271° (W) 15:00:20 437.125/150
ITAMSAT 1 25 Mar 14:56:30 15:01:42 71° 72° (ENE) 15:06:56 435.822/435.867
AO-7 25 Mar 14:56:51 15:05:07 73° 66° (ENE) 15:13:24 .
Gurwin Techsat 1B 25 Mar 14:57:40 15:02:00 25° 267° (W) 15:06:21 435.225
50 SAT 25 Mar 14:58:50 14:59:14 10° 300° (WNW) 14:59:38 437.505
DX 1 25 Mar 14:58:54 15:02:23 23° 296° (WNW) 15:05:52 434.975-435.025
NO-84 25 Mar 15:10:10 15:12:37 20° 227° (SW) 15:15:14 435.350 FM
BEESAT 25 Mar 15:18:49 15:23:16 38° 98° (E) 15:27:41 436.000
ITUPSAT 1 25 Mar 15:34:08 15:38:48 52° 100° (E) 15:43:26 437.325
UKube-1 25 Mar 15:42:30 15:44:33 13° 302° (WNW) 15:46:36 .
MOZHAYETS 4 25 Mar 15:46:09 15:50:13 31° 96° (E) 15:54:15
SO-50 25 Mar 16:21:35 16:26:07 51° 313° (NW) 16:30:36 436.795
DOVE 4 25 Mar 16:33:30 16:36:32 17° 58° (ENE) 16:39:41 437.250
CUBESAT XI-V 25 Mar 16:35:48 16:39:05 19° 91° (E) 16:42:21 437.345
ITAMSAT 1 25 Mar 16:38:18 16:41:41 17° 270° (W) 16:45:05 435.822/435.867
CUTE-I 25 Mar 16:40:16 16:43:43 18° 57° (ENE) 16:47:09 437.470
XW-2D 25 Mar 16:41:28 16:42:22 11° 60° (ENE) 16:43:16 145.860 - 145.880
XW-2B 25 Mar 16:46:47 16:48:14 12° 61° (ENE) 16:49:42 145.730 - 145.750
RS-15 25 Mar 16:50:56 17:02:02 37° 343° (NNW) 17:13:11 29.354- 29.394
KAITUO 1B 25 Mar 16:50:57 16:51:45 11° 60° (ENE) 16:52:33 145.475/437.950
PCSat 25 Mar 16:51:08 16:54:22 16° 29° (NNE) 16:57:36 145.827
AO-7 25 Mar 16:51:40 16:58:35 29° 266° (W) 17:05:32 .
XW-2C 25 Mar 16:56:02 16:58:15 15° 63° (ENE) 17:00:29 145.795 - 145.815
BEESAT 25 Mar 16:56:52 17:00:54 28° 296° (WNW) 17:04:56 436.000
YUBILEINY 25 Mar 17:07:32 17:13:21 19° 55° (NE) 17:19:10 435.215
KKS-1 25 Mar 17:11:56 17:16:20 51° 100° (E) 17:20:42 437.445
ITUPSAT 1 25 Mar 17:12:41 17:16:17 22° 298° (WNW) 17:19:52 437.325
MOZHAYETS 4 25 Mar 17:23:20 17:27:21 31° 293° (WNW) 17:31:20
O/OREOS (USA 219) 25 Mar 17:23:23 17:27:50 60° 111° (ESE) 17:32:21 437.305
LilacSat-2 25 Mar 17:46:27 17:50:12 53° 73° (ENE) 17:53:56 437.200
XW-2F 25 Mar 17:47:02 17:50:43 50° 73° (ENE) 17:54:23 145.980 - 146.000
STARS 25 Mar 17:51:06 17:55:30 58° 101° (ESE) 17:59:51 437.465
SO-50 25 Mar 18:05:10 18:07:36 14° 334° (NNW) 18:10:03 436.795
HO-68 25 Mar 18:05:16 18:11:22 32° 57° (ENE) 18:17:28 435.675
DOVE 4 25 Mar 18:08:54 18:13:34 73° 258° (WSW) 18:18:35 437.250
XW-2D 25 Mar 18:12:11 18:16:00 77° 258° (WSW) 18:19:49 145.860 - 145.880
CUBESAT XI-V 25 Mar 18:12:14 18:16:46 53° 289° (WNW) 18:21:17 437.345
NUDT-PHONESAT 25 Mar 18:15:28 18:19:13 89° 261° (W) 18:22:58 437.300
CUTE-I 25 Mar 18:17:43 18:23:05 82° 255° (WSW) 18:28:31 437.470
XW-2B 25 Mar 18:18:08 18:21:55 68° 258° (WSW) 18:25:43 145.730 - 145.750
KAITUO 1B 25 Mar 18:21:28 18:25:13 76° 259° (WSW) 18:28:58 145.475/437.950
SEEDS 25 Mar 18:21:37 18:23:30 13° 60° (ENE) 18:25:24 437.485
CUTE 1.7 + AOD 2 25 Mar 18:25:08 18:28:14 20° 64° (ENE) 18:31:20 437.475
XW-2C 25 Mar 18:28:22 18:32:05 50° 260° (W) 18:35:48 145.795 - 145.815
M-CUBED/EXP-1 PRIME 25 Mar 18:33:12 18:36:53 23° 99° (E) 18:40:34 437.505
PCSat 25 Mar 18:33:38 18:39:00 56° 52° (NE) 18:44:19 145.827
XW-2A 25 Mar 18:43:44 18:46:51 32° 71° (ENE) 18:50:00 145.665 - 145.685
KKS-1 25 Mar 18:49:16 18:52:33 20° 298° (WNW) 18:55:49 437.445
UWE-3 25 Mar 19:01:51 19:04:54 18° 61° (ENE) 19:07:56 435.000/436.395/437.385
YUBILEINY 25 Mar 19:03:05 19:11:51 77° 80° (E) 19:20:34 435.215
O/OREOS (USA 219) 25 Mar 19:04:18 19:07:39 20° 311° (NW) 19:11:03 437.305
RS-15 25 Mar 19:07:41 19:18:55 37° 18° (NNE) 19:29:54 29.354- 29.394
LilacSat-2 25 Mar 19:22:57 19:24:48 13° 270° (W) 19:26:41 437.200
XW-2F 25 Mar 19:23:09 19:25:10 14° 270° (W) 19:27:09 145.980 - 146.000
STARS 25 Mar 19:28:28 19:31:25 18° 299° (WNW) 19:34:21 437.465
CUBEBUG 2 25 Mar 19:31:36 19:36:11 48° 71° (ENE) 19:40:43 437.445
Oscar 11 25 Mar 19:39:18 19:42:13 18° 62° (ENE) 19:45:07 .
AAUSAT CUBESAT 2 25 Mar 19:42:03 19:45:54 40° 70° (ENE) 19:49:46 437.432
ZACube-1 25 Mar 19:44:01 19:47:45 26° 66° (ENE) 19:51:27 437.345
HO-68 25 Mar 19:51:37 19:58:41 62° 258° (WSW) 20:05:47 435.675
SEEDS 25 Mar 19:54:29 19:58:39 74° 259° (W) 20:02:49 437.485
CUTE 1.7 + AOD 2 25 Mar 19:59:47 20:03:48 43° 262° (W) 20:07:50 437.475
CUTE-I 25 Mar 20:01:59 20:03:58 12° 274° (W) 20:05:57 437.470
M-CUBED/EXP-1 PRIME 25 Mar 20:07:03 20:11:28 48° 295° (WNW) 20:15:57 437.505
AO-73 25 Mar 20:12:20 20:16:36 42° 70° (ENE) 20:20:49 145.935
XW-2A 25 Mar 20:17:24 20:19:44 17° 267° (W) 20:22:04 145.665 - 145.685
PCSat 25 Mar 20:17:37 20:22:03 26° 251° (WSW) 20:26:27 145.827
STRAND 1 25 Mar 20:17:55 20:23:03 71° 103° (ESE) 20:28:08 437.568
AO-85 25 Mar 20:25:03 20:27:29 15° 112° (ESE) 20:29:51 145.980
UWE-3 25 Mar 20:36:16 20:40:53 64° 259° (W) 20:45:29 435.000/436.395/437.385
ISS 25 Mar 20:41:38 20:43:23 14° 134° (SE) 20:45:09 437.550
Tancredo 1 25 Mar 20:45:45 20:47:48 16° 136° (SE) 20:49:51 437.200
YUBILEINY 25 Mar 21:01:02 21:07:43 26° 281° (W) 21:14:26 435.215
CUBEBUG 2 25 Mar 21:09:21 21:13:00 22° 268° (W) 21:16:40 437.445
DELFI C3 25 Mar 21:09:36 21:13:19 43° 71° (ENE) 21:17:03 145.870
Oscar 11 25 Mar 21:13:44 21:17:57 53° 260° (W) 21:22:12 .
AAUSAT CUBESAT 2 25 Mar 21:18:34 21:21:33 19° 268° (W) 21:24:34 437.432
ZACube-1 25 Mar 21:19:36 21:23:51 38° 263° (W) 21:28:04 437.345
RS-15 25 Mar 21:21:32 21:33:57 73° 48° (NE) 21:45:51 29.354- 29.394
SO-50 25 Mar 21:30:27 21:32:43 13° 25° (NNE) 21:34:59 436.795
HO-68 25 Mar 21:46:07 21:47:51 11° 277° (W) 21:49:36 435.675
AO-73 25 Mar 21:49:27 21:53:00 22° 267° (W) 21:56:31 145.935
ESTCUBE 1 25 Mar 21:51:15 21:53:08 13° 58° (ENE) 21:55:02 437.505/2401.250
STRAND 1 25 Mar 21:58:14 22:01:41 19° 302° (WNW) 22:05:07 437.568
AO-85 25 Mar 22:03:06 22:07:28 71° 309° (NW) 22:11:33 145.980
ISS 25 Mar 22:16:08 22:19:23 80° 154° (SSE) 22:22:41 437.550
Tancredo 1 25 Mar 22:20:23 22:23:34 87° 338° (NNW) 22:26:46 437.200
FO-29 25 Mar 22:20:52 22:25:27 22° 88° (E) 22:29:39 435.910
PRISM 25 Mar 22:24:07 22:28:15 60° 101° (ESE) 22:32:22 437.425
DELFI C3 25 Mar 22:45:44 22:48:19 17° 268° (W) 22:50:55 145.870
TIGRISAT 25 Mar 22:47:47 22:52:09 52° 99° (E) 22:56:23 435.000
UNISAT 6 25 Mar 22:57:40 23:02:08 71° 103° (ESE) 23:06:28 437.425
LO-87 25 Mar 22:58:59 23:02:34 85° 257° (WSW) 23:06:14 145.935 - 145.965
VELOX 1 25 Mar 23:05:32 23:08:53 22° 63° (ENE) 23:12:16 145.980
SO-50 25 Mar 23:09:51 23:14:16 49° 47° (NE) 23:18:38 436.795
BEESAT 3 25 Mar 23:15:33 23:19:27 75° 126° (SE) 23:23:27 437.485
ESTCUBE 1 25 Mar 23:24:48 23:29:16 88° 256° (WSW) 23:33:47 437.505/2401.250
UKube-1 25 Mar 23:28:46 23:30:32 12° 57° (ENE) 23:32:18 .
BEESAT 2 25 Mar 23:29:36 23:33:21 43° 120° (ESE) 23:37:10 435.950
NANOSAT C BR1 25 Mar 23:34:27 23:36:44 14° 90° (E) 23:38:59 145.865
RS-15 25 Mar 23:34:47 23:45:40 40° 253° (WSW) 23:56:10 29.354- 29.394
EO-79 25 Mar 23:38:07 23:40:54 17° 91° (E) 23:43:40 145.935-145.965
AIST 2D 25 Mar 23:40:07 23:43:09 27° 96° (E) 23:46:09 435.315
AO-85 25 Mar 23:46:15 23:48:32 14° 328° (NNW) 23:50:47 145.980
ISS 25 Mar 23:53:01 23:56:05 36° 351° (N) 23:59:11 437.550
SPROUT 25 Mar 23:54:30 23:58:41 53° 72° (ENE) 00:02:54 437.525
Tancredo 1 25 Mar 23:57:01 23:59:58 34° 353° (N) 00:02:57 437.200
50 SAT 25 Mar 23:59:18 00:02:33 39° 71° (ENE) 00:05:49 437.505
PRISM 26 Mar 00:00:37 00:03:05 16° 299° (WNW) 00:05:34 437.425
FO-29 26 Mar 00:05:02 00:11:11 62° 290° (WNW) 00:16:37 435.910
POLYITAN 1 26 Mar 00:05:16 00:09:05 31° 96° (E) 00:12:51 437.675
QB50P2 26 Mar 00:09:44 00:13:43 38° 98° (E) 00:17:39 145.880/145.840
DX 1 26 Mar 00:20:11 00:24:23 50° 71° (ENE) 00:28:37 434.975-435.025
DUCHIFAT 1 26 Mar 00:23:02 00:27:03 40° 98° (E) 00:30:59 145.980
TIGRISAT 26 Mar 00:25:19 00:28:27 19° 298° (WNW) 00:31:31 435.000
UNISAT 6 26 Mar 00:35:47 00:38:16 15° 301° (WNW) 00:40:42 437.425
VELOX 1 26 Mar 00:40:50 00:45:04 45° 261° (W) 00:49:20 145.980
BUGSAT 1 26 Mar 00:42:30 00:45:52 23° 94° (E) 00:49:11 437.445
SO-50 26 Mar 00:50:50 00:54:27 24° 246° (WSW) 00:58:03 436.795
BEESAT 3 26 Mar 00:54:44 00:57:32 18° 324° (NW) 01:00:22 437.485
UKube-1 26 Mar 01:01:35 01:05:54 85° 253° (WSW) 01:10:16 .
BEESAT 2 26 Mar 01:07:53 01:11:17 26° 319° (NW) 01:14:42 435.950
NANOSAT C BR1 26 Mar 01:08:39 01:12:50 60° 287° (WNW) 01:16:59 145.865
ITUPSAT 1 26 Mar 01:09:03 01:11:06 13° 56° (NE) 01:13:09 437.325
EO-79 26 Mar 01:12:50 01:16:58 50° 289° (WNW) 01:21:03 145.935-145.965
AIST 2D 26 Mar 01:13:34 01:16:15 21° 293° (WNW) 01:18:57 435.315
Oscar 19 26 Mar 01:21:39 01:25:33 21° 92° (E) 01:29:26 437.125/150
ISS 26 Mar 01:29:55 01:33:02 39° 12° (NNE) 01:36:10 437.550
Gurwin Techsat 1B 26 Mar 01:31:10 01:34:17 15° 88° (E) 01:37:22 435.225
SPROUT 26 Mar 01:32:08 01:34:55 17° 269° (W) 01:37:43 437.525
Tancredo 1 26 Mar 01:33:32 01:36:35 40° 14° (NNE) 01:39:39 437.200
50 SAT 26 Mar 01:33:53 01:35:48 14° 268° (W) 01:37:44 437.505
POLYITAN 1 26 Mar 01:41:11 01:44:47 27° 294° (WNW) 01:48:20 437.675
QB50P2 26 Mar 01:45:57 01:49:19 23° 295° (WNW) 01:52:40 145.880/145.840
O/OREOS (USA 219) 26 Mar 01:51:38 01:55:30 26° 53° (NE) 01:59:21 437.305
FO-29 26 Mar 01:52:29 01:54:50 12° 313° (NW) 01:57:05 435.910
DX 1 26 Mar 01:57:53 02:00:51 18° 268° (W) 02:03:51 434.975-435.025
DUCHIFAT 1 26 Mar 01:59:14 02:02:29 22° 296° (WNW) 02:05:42 145.980
BUGSAT 1 26 Mar 02:17:29 02:21:20 35° 292° (WNW) 02:25:07 437.445
BEESAT 26 Mar 02:27:39 02:32:21 61° 72° (ENE) 02:37:05 436.000
ITUPSAT 1 26 Mar 02:43:22 02:48:10 83° 76° (ENE) 02:52:59 437.325
MOZHAYETS 4 26 Mar 02:50:27 02:54:47 42° 69° (ENE) 02:59:06
AO-7 26 Mar 02:56:43 03:02:05 18° 88° (E) 03:07:25 .
Oscar 19 26 Mar 03:00:09 03:05:13 56° 290° (WNW) 03:10:16 437.125/150
ISS 26 Mar 03:06:23 03:09:40 65° 211° (SSW) 03:12:56 437.550
ITAMSAT 1 26 Mar 03:07:21 03:11:04 20° 91° (E) 03:14:46 435.822/435.867
Gurwin Techsat 1B 26 Mar 03:09:31 03:14:52 79° 287° (WNW) 03:20:10 435.225
Tancredo 1 26 Mar 03:09:41 03:12:49 54° 212° (SSW) 03:15:58 437.200
STARS 26 Mar 03:18:28 03:18:54 10° 55° (NE) 03:19:21 437.465
O/OREOS (USA 219) 26 Mar 03:30:43 03:35:05 43° 252° (WSW) 03:39:26 437.305
CUBESAT XI-V 26 Mar 03:41:42 03:45:27 26° 65° (ENE) 03:49:14 437.345
